This is the latest recevied weather packets stored in our database for station/object EA1CUE-WX. If no packets are shown the sender has not sent any weather packets the latest 10 day(s).
| Time | Temp. | Humidity | Pressure | Rain* | Wind** | Luminosity | Snow |
|---|---|---|---|---|---|---|---|
| 1787523529 | 19.44° C | 42% | 1013.6 hPa | 0 mm | - | - | - |
| 1787523229 | 18.89° C | 42% | 1013.9 hPa | 0 mm | - | - | - |
| 1787522929 | 18.89° C | 42% | 1014 hPa | 0 mm | - | - | - |
| 1787522629 | 18.89° C | 41% | 1014 hPa | 0 mm | - | - | - |
| 1787522329 | 18.33° C | 40% | 1014.1 hPa | 0 mm | - | - | - |
| 1787522029 | 17.78° C | 38% | 1014.3 hPa | 0 mm | - | - | - |
| 1787521729 | 17.22° C | 26% | 1014.4 hPa | 0 mm | - | - | - |
| 1787521429 | 16.67° C | 4% | 1014.4 hPa | 0 mm | - | - | - |
| 1787521129 | 16.67° C | 1% | 1014.5 hPa | 0 mm | - | - | - |
| 1787520829 | 16.67° C | 1% | 1014.5 hPa | 0 mm | - | - | - |
| 1787520529 | 17.22° C | 10% | 1014.4 hPa | 0 mm | - | - | - |
| 1787520229 | 17.22° C | 19% | 1014.7 hPa | 0 mm | - | - | - |
| 1787519929 | 17.78° C | 36% | 1015.6 hPa | 0 mm | - | - | - |
| 1787519629 | 18.33° C | 51% | 1015.6 hPa | 0 mm | - | - | - |
| 1787519329 | 19.44° C | 50% | 1015.5 hPa | 0 mm | - | - | - |
| 1787519029 | 20.56° C | 50% | 1015.7 hPa | 0 mm | - | - | - |
| 1787518729 | 21.67° C | 47% | 1015.7 hPa | 0 mm | - | - | - |
| 1787518429 | 22.22° C | 43% | 1015.2 hPa | 0 mm | - | - | - |
| 1787518129 | 22.22° C | 41% | 1014.7 hPa | 0 mm | - | - | - |
| 1787517829 | 22.22° C | 40% | 1014.4 hPa | 0 mm | - | - | - |
| 1787517529 | 22.22° C | 40% | 1014.2 hPa | 0 mm | - | - | - |
| 1787517229 | 22.22° C | 40% | 1014.2 hPa | 0 mm | - | - | - |
| 1787516929 | 22.22° C | 40% | 1014.3 hPa | 0 mm | - | - | - |
| 1787516629 | 22.22° C | 40% | 1014.2 hPa | 0 mm | - | - | - |
| 1787516329 | 22.22° C | 41% | 1014 hPa | 0 mm | - | - | - |
* Rain latest hour (hover to see other rain measurements)
** Current wind speed in m/s (hover to see current wind gust speed)